1510930800.95,2455,8.5,73568.0,-3.21,-4.13,-4.17,0,*62
1510930802.17,2456,8.44,73564.8,-3.21,-4.17,-4.13,0,*61
1510930803.38,2457,8.5,73570.5,-3.21,-4.13,-4.05,0,*63
1510930804.57,2458,8.44,73562.3,-3.19,-4.13,-4.09,0,*6B
1510930805.8,2459,8.44,73566.8,-3.19,-4.21,-4.01,0,*63
1510930807.02,2460,8.5,73570.0,-3.21,-4.13,-4.13,0,*60
1510930808.24,2461,8.5,73570.3,-3.21,-4.17,-4.13,0,*65
1510930809.46,2462,8.44,73570.3,-3.21,-4.17,-4.13,0,*66
1510930810.68,2463,8.5,73572.0,-3.21,-4.17,-4.13,0,*67
1510930811.89,2464,8.44,73570.8,-3.19,-4.13,-4.01,0,*6C
1510930813.08,2465,8.44,73570.8,-3.19,-4.13,-4.09,0,*65
1510930814.31,2466,8.44,73570.5,-3.21,-4.13,-4.13,0,*66
1510930815.53,2467,8.44,73568.8,-3.21,-4.13,-4.13,0,*67
1510930816.74,2468,8.44,73568.5,-3.21,-4.17,-4.17,0,*68
1510930817.96,2469,8.5,73570.0,-3.21,-4.25,-4.13,0,*6C
1510930819.16,2470,8.44,73568.3,-3.19,-4.13,-4.09,0,*61
1510930820.35,2471,8.44,73572.5,-3.19,-4.13,-4.13,0,*6B
1510930821.54,2472,8.44,73570.5,-3.19,-4.17,-4.13,0,*6C
1510930822.76,2473,8.44,73574.0,-3.21,-4.17,-4.13,0,*66
1510930823.95,2474,8.5,73574.0,-3.19,-4.13,-4.09,0,*65
1510930825.14,2475,8.44,73572.0,-3.23,-4.13,-4.13,0,*66
1510930826.36,2476,8.44,73570.8,-3.21,-4.17,-4.05,0,*64
1510930827.58,2477,8.44,73570.0,-3.19,-4.13,-4.01,0,*6E
1510930828.8,2478,8.44,73570.0,-3.21,-4.13,-4.13,0,*69
1510930830.04,2479,8.44,73568.3,-3.21,-4.13,-4.01,0,*6B
1510930831.26,2480,8.44,73570.0,-3.21,-4.13,-4.05,0,*69
1510930832.48,2481,8.44,73572.0,-3.21,-4.13,-4.05,0,*68
1510930833.7,2482,8.5,73572.5,-3.21,-4.17,-4.05,0,*6F
1510930834.91,2483,8.44,73572.8,-3.21,-4.17,-4.13,0,*69
1510930836.11,2484,8.5,73574.0,-3.19,-4.13,-4.13,0,*61
1510930837.32,2485,8.44,73574.3,-3.21,-4.17,-4.17,0,*6B
1510930838.54,2486,8.44,73572.5,-3.21,-4.13,-4.05,0,*6F
1510930839.78,2487,8.44,73570.8,-3.21,-4.05,-4.01,0,*6D
1510930841.0,2488,8.44,73572.8,-3.19,-4.05,-4.01,0,*69
1510930842.22,2489,8.44,73572.3,-3.21,-4.13,-4.05,0,*60
1510930843.44,2490,8.44,73574.8,-3.21,-4.05,-4.05,0,*6F
1510930844.66,2491,8.44,73574.8,-3.21,-4.05,-4.05,0,*6E
1510930845.87,2492,8.5,73574.3,-3.19,-4.09,-4.01,0,*6E
1510930847.07,2493,8.44,73570.5,-3.19,-4.05,-4.05,0,*67
1510930848.26,2494,8.44,73572.5,-3.19,-4.13,-4.13,0,*60
1510930849.48,2495,8.5,73576.5,-3.19,-4.01,-3.95,0,*6B
1510930850.73,2496,8.44,73572.5,-3.21,-4.05,-4.01,0,*6D
1510930851.97,2497,8.44,73574.8,-3.21,-4.13,-4.01,0,*6B
1510930853.22,2498,8.5,73572.5,-3.19,-4.01,-4.01,0,*6C
1510930854.44,2499,8.44,73572.5,-3.21,-4.13,-4.05,0,*61
1510930855.65,2500,8.44,73574.0,-3.21,-4.13,-4.05,0,*60
1510930856.87,2501,8.5,73576.0,-3.19,-4.01,-3.95,0,*67
1510930858.12,2502,8.5,73572.3,-3.19,-4.01,-4.01,0,*6E
1510930859.34,2503,8.44,73572.5,-3.21,-4.05,-4.05,0,*64
1510930860.56,2504,8.5,73578.5,-3.21,-4.05,-4.05,0,*63
1510930861.8,2505,8.5,73574.3,-3.21,-4.05,-4.01,0,*66
1510930863.03,2506,8.5,73576.5,-3.19,-4.01,-3.95,0,*60
1510930864.3,2507,8.44,73572.8,-3.21,-4.01,-4.01,0,*60
1510930865.5,2508,8.44,73572.8,-3.19,-3.95,-3.95,0,*64
1510930866.77,2509,8.44,73572.5,-3.21,-4.01,-4.01,0,*6E
1510930868.0,2510,8.44,73572.0,-3.19,-3.95,-4.01,0,*67
1510930869.27,2511,8.44,73574.0,-3.21,-4.01,-4.01,0,*67
1510930870.49,2512,8.44,73572.3,-3.19,-4.01,-3.95,0,*65
1510930871.71,2513,8.44,73574.0,-3.19,-4.05,-4.01,0,*6A
1510930872.93,2514,8.5,73572.3,-3.19,-4.01,-3.95,0,*63
1510930874.15,2515,8.5,73572.5,-3.19,-4.01,-3.95,0,*62
1510930875.4,2516,8.44,73572.8,-3.19,-4.01,-4.01,0,*6B
1510930876.62,2517,8.44,73574.3,-3.19,-4.01,-4.09,0,*62
1510930877.9,2518,8.5,73576.3,-3.17,-4.01,-4.01,0,*6B
1510930879.12,2519,8.44,73574.3,-3.21,-4.05,-4.05,0,*6F
1510930880.36,2520,8.5,73572.3,-3.19,-4.01,-4.01,0,*6E
1510930881.61,2521,8.5,73572.5,-3.21,-4.05,-4.01,0,*60
1510930882.83,2522,8.44,73566.5,-3.19,-4.01,-3.95,0,*66
1510930884.1,2523,8.44,73568.5,-3.17,-4.01,-4.01,0,*63
1510930885.35,2524,8.5,73570.0,-3.19,-4.01,-4.01,0,*6A
1510930886.6,2525,8.44,73568.5,-3.21,-4.01,-4.05,0,*64
1510930887.82,2526,8.44,73572.3,-3.21,-4.13,-4.05,0,*64
1510930889.04,2527,8.44,73572.0,-3.21,-4.13,-4.05,0,*65
1510930890.25,2528,8.44,73574.0,-3.21,-4.13,-4.05,0,*6A
1510930891.45,2529,8.44,73572.5,-3.19,-4.09,-4.05,0,*6B
1510930892.67,2530,8.44,73574.0,-3.19,-4.01,-4.09,0,*67
1510930893.92,2531,8.44,73572.0,-3.19,-4.01,-4.01,0,*6E
1510930895.16,2532,8.44,73570.8,-3.19,-4.01,-4.01,0,*6D
1510930896.44,2533,8.44,73572.5,-3.21,-4.01,-4.01,0,*67
1510930897.67,2534,8.44,73572.5,-3.19,-4.01,-3.91,0,*65
1510930898.89,2535,8.44,73572.5,-3.19,-4.01,-3.95,0,*60
1510930900.11,2536,8.44,73572.0,-3.19,-4.01,-3.95,0,*63
1510930901.33,2537,8.44,73572.5,-3.21,-4.05,-3.95,0,*6D
1510930902.55,2538,8.5,73574.8,-3.19,-4.01,-3.95,0,*6D
1510930903.77,2539,8.44,73570.5,-3.19,-4.01,-3.95,0,*6C
1510930905.01,2540,8.44,73572.8,-3.21,-4.05,-4.01,0,*67
1510930906.23,2541,8.44,73572.5,-3.21,-4.05,-4.05,0,*62
1510930907.47,2542,8.44,73574.3,-3.17,-4.09,-4.01,0,*6C
1510930908.69,2543,8.44,73574.5,-3.19,-4.09,-4.01,0,*63
1510930909.91,2544,8.44,73572.0,-3.19,-4.09,-4.01,0,*64
1510930911.13,2545,8.44,73572.5,-3.21,-4.13,-4.05,0,*61
1510930912.34,2546,8.44,73572.5,-3.19,-4.09,-4.01,0,*66
1510930913.59,2547,8.44,73572.5,-3.19,-4.01,-4.01,0,*6F
1510930914.81,2548,8.44,73576.3,-3.19,-4.01,-3.95,0,*6A
1510930916.03,2549,8.5,73578.0,-3.19,-4.01,-3.95,0,*6B
1510930917.26,2550,8.44,73572.8,-3.19,-4.01,-3.95,0,*63
1510930918.48,2551,8.44,73574.5,-3.19,-4.01,-3.95,0,*62
1510930919.72,2552,8.44,73576.3,-3.21,-4.05,-4.01,0,*64
1510930920.94,2553,8.5,73576.0,-3.19,-4.01,-3.95,0,*60
1510930922.16,2554,8.5,73578.8,-3.19,-4.01,-3.95,0,*67
1510930923.36,2555,8.5,73576.8,-3.19,-4.09,-3.95,0,*6E
1510930924.58,2556,8.44,73574.3,-3.19,-4.01,-3.95,0,*65
1510930925.79,2557,8.44,73568.8,-3.21,-4.05,-3.95,0,*6B
1510930927.02,2558,8.44,73574.8,-3.19,-4.01,-3.95,0,*6B
1510930928.26,2559,8.44,73572.8,-3.21,-4.05,-4.01,0,*6F
1510930929.48,2560,8.44,73572.3,-3.19,-4.01,-3.95,0,*60
1510930930.7,2561,8.44,73574.5,-3.19,-4.01,-3.95,0,*61
1510930931.9,2562,8.44,73572.5,-3.19,-4.09,-3.95,0,*6A
1510930933.11,2563,8.44,73570.0,-3.19,-4.13,-4.01,0,*6A
1510930934.33,2564,8.44,73572.5,-3.19,-4.09,-4.01,0,*66
1510930935.58,2565,8.5,73576.0,-3.19,-4.01,-4.01,0,*6F
1510930936.83,2566,8.5,73576.0,-3.19,-4.01,-4.01,0,*6C
1510930938.05,2567,8.44,73572.8,-3.19,-4.01,-3.95,0,*67
1510930939.27,2568,8.5,73578.8,-3.19,-4.01,-3.95,0,*68
1510930940.49,2569,8.44,73574.3,-3.19,-4.01,-3.95,0,*69
1510930941.71,2570,8.44,73574.0,-3.19,-4.01,-3.95,0,*61
1510930942.96,2571,8.44,73572.5,-3.19,-4.01,-4.01,0,*6A
1510930944.23,2572,8.44,73572.0,-3.17,-4.01,-4.01,0,*67
1510930945.47,2573,8.44,73572.8,-3.17,-4.09,-4.01,0,*6E
1510930946.75,2574,8.44,73572.0,-3.17,-4.01,-4.01,0,*61
1510930948.02,2575,8.44,73576.0,-3.17,-4.01,-4.01,0,*60
1510930949.29,2576,8.44,73572.3,-3.17,-4.01,-4.01,0,*63
1510930950.53,2577,8.44,73570.5,-3.17,-4.09,-4.01,0,*6A
1510930951.75,2578,8.44,73574.3,-3.19,-4.09,-4.01,0,*6B
1510930953.02,2579,8.44,73574.5,-3.17,-4.01,-4.01,0,*6C
1510930954.24,2580,8.44,73574.8,-3.19,-4.09,-4.01,0,*6C
1510930955.49,2581,8.5,73576.0,-3.19,-4.01,-4.01,0,*65
1510930956.74,2582,8.44,73570.3,-3.19,-4.01,-4.01,0,*66
1510930957.95,2583,8.44,73574.8,-3.19,-4.09,-4.01,0,*6F
1510930959.17,2584,8.44,73574.3,-3.19,-4.09,-4.01,0,*68
1510930960.42,2585,8.44,73572.3,-3.19,-4.01,-4.01,0,*61
1510930961.67,2586,8.44,73572.5,-3.13,-3.95,-4.01,0,*62
1510930962.94,2587,8.44,73574.5,-3.17,-4.01,-4.01,0,*6D
1510930964.18,2588,8.44,73572.5,-3.17,-4.09,-4.01,0,*6A
1510930965.43,2589,8.44,73574.5,-3.17,-4.01,-4.09,0,*6B
1510930966.7,2590,8.44,73570.5,-3.17,-4.01,-4.01,0,*6B
1510930967.97,2591,8.44,73572.5,-3.17,-4.01,-4.01,0,*6A
1510930969.19,2592,8.44,73574.0,-3.13,-3.95,-4.05,0,*63
1510930970.46,2593,8.44,73572.0,-3.17,-4.01,-4.01,0,*68
1510930971.71,2594,8.44,73572.0,-3.17,-4.01,-4.09,0,*67
1510930972.93,2595,8.44,73574.0,-3.17,-4.09,-4.09,0,*6E
1510930974.17,2596,8.44,73572.8,-3.17,-4.09,-4.01,0,*65
1510930975.38,2597,8.44,73572.5,-3.17,-4.09,-4.09,0,*6C
1510930976.66,2598,8.44,73572.5,-3.17,-4.01,-4.01,0,*63
1510930977.9,2599,8.44,73570.5,-3.17,-4.09,-4.01,0,*6A
1510930979.11,2600,8.44,73572.5,-3.13,-4.05,-3.95,0,*6B
1510930980.36,2601,8.44,73572.0,-3.17,-4.01,-3.91,0,*6E
1510930981.61,2602,8.44,73570.5,-3.17,-4.01,-3.95,0,*69
1510930982.88,2603,8.44,73574.3,-3.17,-4.01,-4.01,0,*62
1510930984.09,2604,8.5,73572.8,-3.17,-4.09,-4.09,0,*65
1510930985.37,2605,8.44,73572.0,-3.17,-4.01,-4.01,0,*64
1510930986.64,2606,8.44,73574.0,-3.17,-4.01,-4.01,0,*67
1510930987.91,2607,8.44,73574.3,-3.17,-4.01,-4.01,0,*66
1510930989.18,2608,8.44,73574.8,-3.17,-4.01,-4.01,0,*69
1510930990.4,2609,8.44,73574.3,-3.13,-3.95,-3.95,0,*6C
1510930991.65,2610,8.44,73570.3,-3.17,-4.09,-4.01,0,*68
1510930992.86,2611,8.44,73572.3,-3.13,-4.05,-3.95,0,*6B
1510930994.1,2612,8.44,73570.5,-3.17,-4.09,-4.01,0,*6A
1510930995.37,2613,8.44,73572.0,-3.17,-4.01,-4.01,0,*63
1510930996.65,2614,8.44,73570.3,-3.17,-4.01,-4.01,0,*64
1510930997.92,2615,8.44,73568.3,-3.17,-4.01,-4.01,0,*65
1510930999.13,2616,8.44,73574.5,-3.13,-4.05,-3.95,0,*6C
1510931000.38,2617,8.44,73572.3,-3.17,-4.01,-3.95,0,*6D
1510931001.6,2618,8.44,73572.5,-3.17,-3.95,-3.95,0,*68
1510931002.81,2619,8.44,73572.3,-3.13,-4.05,-3.95,0,*63
1510931004.09,2620,8.5,73572.8,-3.17,-4.01,-4.01,0,*63
1510931005.3,2621,8.44,73570.8,-3.13,-4.05,-4.05,0,*66
1510931006.54,2622,8.44,73572.3,-3.17,-4.13,-4.01,0,*62
1510931007.76,2623,8.44,73572.3,-3.13,-4.05,-3.95,0,*6A
1510931008.97,2624,8.44,73570.8,-3.17,-4.09,-4.09,0,*67
1510931010.19,2625,8.44,73570.5,-3.13,-4.05,-3.95,0,*6C
1510931011.46,2626,8.44,73572.3,-3.17,-4.01,-4.01,0,*65
1510931012.73,2627,8.5,73572.5,-3.17,-4.01,-4.01,0,*64
1510931014.0,2628,8.44,73570.3,-3.17,-4.01,-4.01,0,*6B
1510931015.22,2629,8.44,73572.3,-3.13,-4.05,-4.05,0,*6E
1510931016.46,2630,8.44,73574.3,-3.17,-4.09,-4.01,0,*6A
1510931017.73,2631,8.44,73572.5,-3.17,-4.01,-4.01,0,*63
1510931018.95,2632,8.44,73574.5,-3.13,-4.05,-3.95,0,*6A
1510931020.16,2633,8.44,73572.8,-3.17,-4.09,-4.09,0,*61
1510931021.38,2634,8.44,73572.5,-3.13,-4.09,-4.05,0,*6E
1510931022.59,2635,8.44,73572.3,-3.13,-4.09,-4.05,0,*6F
1510931023.86,2636,8.44,73572.0,-3.17,-4.01,-4.01,0,*64
1510931025.08,2637,8.44,73574.8,-3.17,-4.09,-4.09,0,*65
1510931026.35,2638,8.44,73572.3,-3.17,-4.01,-4.01,0,*6A
1510931027.62,2639,8.44,73574.8,-3.17,-4.01,-4.01,0,*6B
1510931028.84,2640,8.44,73572.0,-3.17,-4.09,-4.09,0,*65
1510931030.09,2641,8.44,73568.5,-3.17,-4.01,-4.09,0,*6C
1510931031.33,2642,8.44,73570.3,-3.17,-4.01,-4.09,0,*6F
1510931032.57,2643,8.44,73568.0,-3.17,-4.09,-4.01,0,*6E
1510931033.85,2644,8.44,73570.5,-3.17,-4.01,-4.01,0,*61
1510931035.06,2645,8.44,73570.5,-3.13,-4.05,-3.95,0,*6A
1510931036.3,2646,8.44,73568.0,-3.17,-4.09,-4.01,0,*6B
1510931037.57,2647,8.44,73568.3,-3.17,-4.01,-4.01,0,*62
1510931038.85,2648,8.44,73572.3,-3.17,-4.01,-4.01,0,*6D
1510931040.06,2649,8.44,73572.3,-3.17,-4.13,-4.09,0,*67
1510931041.29,2650,8.44,73568.8,-3.17,-4.21,-4.13,0,*65
1510931042.51,2651,8.44,73570.8,-3.17,-4.21,-4.13,0,*64
1510931043.73,2652,8.44,73568.5,-3.17,-4.13,-4.21,0,*67
1510931044.95,2653,8.44,73570.0,-3.13,-4.17,-4.09,0,*6C
1510931046.16,2654,8.44,73568.8,-3.17,-4.09,-4.09,0,*60
1510931047.41,2655,8.44,73568.5,-3.17,-4.01,-4.09,0,*69
1510931048.62,2656,8.5,73572.3,-3.13,-4.05,-4.05,0,*66
1510931049.85,2657,8.5,73572.5,-3.17,-4.21,-4.13,0,*62
1510931051.07,2658,8.44,73572.8,-3.17,-4.13,-4.13,0,*6C
1510931052.28,2659,8.44,73574.3,-3.17,-4.13,-4.09,0,*66
1510931053.5,2660,8.44,73572.5,-3.17,-4.09,-4.09,0,*67
1510931054.69,2661,8.44,73568.5,-3.19,-4.13,-4.09,0,*63
1510931055.91,2662,8.44,73574.3,-3.19,-4.13,-4.01,0,*68
1510931057.11,2663,8.44,73574.8,-3.19,-4.21,-4.13,0,*6B
1510931058.3,2664,8.44,73572.5,-3.19,-4.09,-4.09,0,*6D
1510931059.52,2665,8.44,73570.3,-3.19,-4.09,-4.01,0,*64
1510931060.76,2666,8.44,73570.3,-3.19,-4.01,-4.01,0,*6F
1510931061.98,2667,8.44,73572.3,-3.17,-4.13,-4.13,0,*60
1510931063.21,2668,8.44,73572.3,-3.17,-4.21,-4.21,0,*6F
1510931064.43,2669,8.44,73570.5,-3.17,-4.13,-4.09,0,*65
1510931065.64,2670,8.44,73570.0,-3.17,-4.13,-4.09,0,*6D
1510931066.86,2671,8.44,73570.3,-3.17,-4.13,-4.09,0,*6C
1510931068.05,2672,8.44,73574.5,-3.19,-4.09,-4.09,0,*6A
1510931069.27,2673,8.44,73574.5,-3.19,-4.21,-4.01,0,*69
1510931070.46,2674,8.44,73570.5,-3.19,-4.13,-4.09,0,*67
1510931071.66,2675,8.44,73568.0,-3.19,-4.21,-4.09,0,*67
1510931072.89,2676,8.44,73572.0,-3.17,-4.21,-4.13,0,*61
1510931074.11,2677,8.44,73572.5,-3.17,-4.21,-4.09,0,*6B
1510931075.32,2678,8.44,73570.5,-3.17,-4.13,-4.09,0,*65
1510931076.52,2679,8.44,73570.3,-3.19,-4.21,-4.09,0,*6B
1510931077.72,2680,8.44,73572.3,-3.19,-4.21,-4.09,0,*6D
1510931078.92,2681,8.44,73568.5,-3.19,-4.13,-4.21,0,*67
1510931080.11,2682,8.44,73572.0,-3.19,-4.13,-4.13,0,*65
1510931081.3,2683,8.44,73570.5,-3.19,-4.09,-4.13,0,*6F
1510931082.53,2684,8.44,73574.5,-3.21,-4.17,-4.13,0,*6C
1510931083.72,2685,8.44,73574.8,-3.19,-4.13,-4.09,0,*69
1510931084.91,2686,8.5,73572.0,-3.19,-4.13,-4.13,0,*61
1510931086.1,2687,8.44,73568.3,-3.19,-4.13,-4.09,0,*6B
1510931087.34,2688,8.44,73570.8,-3.17,-4.09,-4.01,0,*69
1510931088.56,2689,8.44,73572.0,-3.19,-4.09,-4.01,0,*66
1510931089.78,2690,8.44,73570.8,-3.19,-4.09,-4.01,0,*6E
1510931090.99,2691,8.44,73574.0,-3.19,-4.09,-4.01,0,*6F
1510931092.21,2692,8.44,73570.3,-3.19,-4.09,-4.01,0,*6C
1510931093.43,2693,8.44,73570.0,-3.17,-4.13,-4.09,0,*60
1510931094.64,2694,8.44,73568.0,-3.19,-4.13,-4.01,0,*61
1510931095.86,2695,8.44,73572.8,-3.17,-4.13,-4.09,0,*66
1510931097.1,2696,8.44,73572.0,-3.17,-4.13,-4.01,0,*6D
1510931098.29,2697,8.44,73570.8,-3.19,-4.09,-4.09,0,*61
1510931099.51,2698,8.44,73574.8,-3.17,-4.09,-4.09,0,*60
1510931100.75,2699,8.44,73572.5,-3.17,-4.09,-4.01,0,*69
1510931102.02,2700,8.44,73574.8,-3.17,-4.01,-4.01,0,*60
1510931103.29,2701,8.44,73572.5,-3.17,-4.01,-4.01,0,*61
1510931104.56,2702,8.44,73570.8,-3.17,-4.01,-4.01,0,*62
1510931105.84,2703,8.44,73574.8,-3.17,-4.01,-4.01,0,*63
1510931107.08,2704,8.44,73572.5,-3.17,-4.09,-4.01,0,*6C
1510931108.33,2705,8.44,73572.0,-3.19,-4.01,-4.01,0,*6B
1510931109.55,2706,8.44,73574.8,-3.19,-4.01,-3.95,0,*62
1510931110.77,2707,8.44,73574.0,-3.19,-4.01,-3.95,0,*63
1510931112.02,2708,8.44,73568.8,-3.17,-4.01,-3.95,0,*62
1510931113.26,2709,8.44,73570.3,-3.17,-4.01,-4.09,0,*61
1510931114.54,2710,8.44,73572.8,-3.17,-4.01,-4.01,0,*61
1510931115.76,2711,8.44,73570.5,-3.13,-3.95,-3.95,0,*64
1510931116.98,2712,8.44,73574.0,-3.13,-3.95,-3.91,0,*63
1510931118.23,2713,8.44,73570.8,-3.17,-4.01,-3.91,0,*6C
1510931119.47,2714,8.44,73576.0,-3.17,-4.01,-3.95,0,*6F
1510931120.72,2715,8.44,73572.0,-3.17,-4.01,-3.95,0,*6E
1510931121.97,2716,8.44,73572.8,-3.17,-4.01,-3.95,0,*6D
1510931123.21,2717,8.44,73574.8,-3.17,-4.01,-3.95,0,*6C
1510931124.46,2718,8.44,73576.8,-3.17,-4.01,-3.95,0,*63
1510931125.67,2719,8.44,73572.8,-3.17,-4.09,-3.95,0,*6A
1510931126.92,2720,8.44,73574.8,-3.17,-4.01,-3.95,0,*68
1510931128.13,2721,8.44,73574.8,-3.17,-4.09,-3.95,0,*61
1510931129.41,2722,8.44,73572.8,-3.17,-4.01,-4.01,0,*60
1510931130.62,2723,8.44,73568.5,-3.13,-4.05,-3.95,0,*6B
1510931131.89,2724,8.44,73572.0,-3.17,-4.01,-4.01,0,*66
1510931133.17,2725,8.44,73572.0,-3.17,-4.01,-4.01,0,*67
1510931134.44,2726,8.44,73572.8,-3.17,-4.01,-4.01,0,*64
1510931135.68,2727,8.44,73574.3,-3.17,-4.09,-4.01,0,*6D
1510931136.89,2728,8.44,73576.0,-3.13,-4.05,-3.95,0,*60
1510931138.17,2729,8.44,73574.8,-3.17,-4.01,-4.01,0,*6B
1510931139.38,2730,8.44,73572.3,-3.17,-4.09,-3.95,0,*61
1510931140.63,2731,8.44,73572.8,-3.17,-4.01,-3.95,0,*68
1510931141.87,2732,8.44,73574.8,-3.17,-4.01,-3.95,0,*6B
1510931143.1,2733,8.44,73572.5,-3.17,-3.95,-3.91,0,*64
1510931144.37,2734,8.44,73574.8,-3.17,-4.01,-4.01,0,*67
1510931145.64,2735,8.44,73572.5,-3.17,-4.01,-4.01,0,*66
1510931146.86,2736,8.44,73574.5,-3.13,-3.95,-3.95,0,*61
1510931148.13,2737,8.44,73574.3,-3.17,-4.01,-4.01,0,*64
1510931149.38,2738,8.44,73572.3,-3.17,-4.01,-3.95,0,*61
1510931150.63,2739,8.44,73572.0,-3.17,-4.01,-3.95,0,*60
1510931151.84,2740,8.44,73572.8,-3.17,-4.09,-3.95,0,*66
1510931153.08,2741,8.44,73574.0,-3.17,-4.09,-4.01,0,*6D
1510931154.3,2742,8.44,73572.8,-3.13,-3.95,-4.05,0,*6C
1510931155.54,2743,8.44,73572.8,-3.17,-4.09,-4.01,0,*6F
1510931156.76,2744,8.44,73572.8,-3.13,-4.05,-3.95,0,*6A
1510931157.98,2745,8.44,73570.5,-3.17,-4.21,-4.09,0,*6B
1510931159.2,2746,8.44,73572.5,-3.17,-4.13,-4.21,0,*63
1510931160.41,2747,8.44,73572.5,-3.13,-4.17,-4.17,0,*67
1510931161.64,2748,8.44,73570.3,-3.17,-4.21,-4.13,0,*6D
1510931162.86,2749,8.44,73570.8,-3.17,-4.13,-4.13,0,*6D
1510931164.1,2750,8.44,73568.5,-3.17,-4.09,-4.01,0,*6D
1510931165.31,2751,8.44,73570.0,-3.17,-4.09,-4.09,0,*64
1510931166.54,2752,8.44,73566.0,-3.17,-4.21,-4.13,0,*66
1510931167.76,2753,8.44,73570.5,-3.17,-4.25,-4.13,0,*63
1510931168.97,2754,8.44,73570.5,-3.13,-4.17,-4.17,0,*65
1510931170.16,2755,8.44,73572.3,-3.11,-4.17,-4.09,0,*69
1510931171.39,2756,8.5,73574.3,-3.17,-4.25,-4.21,0,*67
1510931172.61,2757,8.44,73572.0,-3.13,-4.21,-4.09,0,*6C
1510931173.83,2758,8.44,73574.5,-3.17,-4.13,-4.13,0,*6D
1510931175.04,2759,8.44,73570.0,-3.17,-4.13,-4.13,0,*6C
1510931176.26,2760,8.44,73570.5,-3.17,-4.13,-4.13,0,*66
1510931177.47,2761,8.44,73568.8,-3.13,-4.17,-4.17,0,*63
1510931178.7,2762,8.44,73568.5,-3.17,-4.21,-4.21,0,*64
1510931179.93,2763,8.44,73574.0,-3.17,-4.21,-4.13,0,*64
1510931181.15,2764,8.44,73572.3,-3.17,-4.21,-4.13,0,*63
1510931182.37,2765,8.44,73572.5,-3.17,-4.13,-4.09,0,*68
1510931183.59,2766,8.44,73568.5,-3.17,-4.21,-4.13,0,*61
1510931184.82,2767,8.44,73572.8,-3.17,-4.21,-4.21,0,*61
1510931186.06,2768,8.44,73574.3,-3.17,-4.09,-4.01,0,*66
1510931187.28,2769,8.44,73572.3,-3.17,-4.09,-4.09,0,*6F
1510931188.5,2770,8.44,73574.5,-3.17,-4.09,-4.13,0,*6C
1510931189.77,2771,8.44,73572.8,-3.17,-4.01,-4.01,0,*66
1510931191.01,2772,8.44,73574.5,-3.17,-4.09,-4.01,0,*6D
1510931192.25,2773,8.44,73574.0,-3.17,-4.13,-4.01,0,*67
1510931193.49,2774,8.44,73570.8,-3.17,-4.09,-4.01,0,*6B
1510931194.73,2775,8.44,73574.0,-3.17,-4.09,-4.01,0,*6A
1510931196.01,2776,8.44,73568.0,-3.17,-4.01,-4.01,0,*61
1510931197.28,2777,8.44,73574.0,-3.17,-4.01,-4.01,0,*60
1510931198.52,2778,8.44,73572.8,-3.17,-4.09,-4.01,0,*67
1510931199.74,2779,8.44,73570.8,-3.19,-4.09,-4.01,0,*68
1510931200.98,2780,8.44,73570.0,-3.19,-4.01,-4.01,0,*66
1510931202.2,2781,8.44,73572.0,-3.19,-4.09,-4.01,0,*6F
1510931203.42,2782,8.44,73574.3,-3.19,-4.09,-4.01,0,*6C
1510931204.64,2783,8.44,73570.3,-3.19,-4.01,-4.09,0,*6D
1510931205.86,2784,8.44,73574.0,-3.17,-4.09,-4.09,0,*6C
1510931207.1,2785,8.44,73574.3,-3.17,-4.09,-4.01,0,*65
1510931208.34,2786,8.44,73572.0,-3.17,-4.09,-4.01,0,*66
1510931209.58,2787,8.44,73574.5,-3.17,-4.09,-4.01,0,*67
1510931210.79,2788,8.44,73572.0,-3.17,-4.09,-4.09,0,*60
1510931212.07,2789,8.44,73574.8,-3.17,-4.01,-4.01,0,*61
1510931213.34,2790,8.44,73572.8,-3.17,-4.01,-4.01,0,*69
1510931214.61,2791,8.44,73576.5,-3.17,-4.01,-4.01,0,*68
1510931215.88,2792,8.44,73578.3,-3.17,-4.01,-4.01,0,*6B
1510931217.16,2793,8.44,73574.5,-3.17,-4.01,-4.01,0,*6A
1510931218.43,2794,8.44,73578.3,-3.17,-4.01,-4.01,0,*6D
1510931219.65,2795,8.44,73574.0,-3.17,-4.09,-4.09,0,*6C
1510931220.89,2796,8.44,73578.0,-3.17,-4.09,-4.01,0,*67
1510931222.16,2797,8.44,73572.0,-3.17,-4.01,-4.01,0,*6E
1510931223.4,2798,8.44,73578.3,-3.17,-4.09,-4.01,0,*69
1510931224.65,2799,8.44,73576.3,-3.17,-4.01,-4.09,0,*68
1510931225.86,2800,8.44,73574.8,-3.17,-4.13,-4.09,0,*64
1510931227.08,2801,8.44,73576.8,-3.17,-4.09,-4.13,0,*65
1510931228.31,2802,8.44,73574.3,-3.17,-4.21,-4.13,0,*6C
1510931229.52,2803,8.44,73570.8,-3.17,-4.13,-4.13,0,*6C
1510931230.75,2804,8.44,73572.5,-3.17,-4.21,-4.09,0,*61
1510931231.96,2805,8.44,73572.3,-3.13,-4.09,-4.05,0,*62
1510931233.18,2806,8.44,73572.5,-3.13,-4.09,-4.13,0,*66
1510931234.4,2807,8.44,73572.0,-3.17,-4.13,-4.13,0,*68
1510931235.61,2808,8.44,73572.8,-3.17,-4.13,-4.09,0,*6C
1510931236.83,2809,8.44,73572.8,-3.13,-4.09,-4.05,0,*6E
1510931238.04,2810,8.44,73572.3,-3.17,-4.09,-4.13,0,*65
1510931239.27,2811,8.44,73568.8,-3.17,-4.21,-4.13,0,*6E
1510931240.5,2812,8.44,73568.3,-3.17,-4.21,-4.21,0,*6C
1510931241.71,2813,8.44,73570.8,-3.17,-4.13,-4.09,0,*66
1510931242.94,2814,8.44,73572.0,-3.17,-4.21,-4.09,0,*60
1510931244.14,2815,8.44,73570.8,-3.19,-4.21,-4.21,0,*65
1510931245.34,2816,8.44,73574.0,-3.19,-4.21,-4.13,0,*67
1510931246.56,2817,8.44,73574.3,-3.17,-4.13,-4.13,0,*69
1510931247.75,2818,8.44,73572.5,-3.19,-4.13,-4.09,0,*63
1510931248.94,2819,8.44,73568.8,-3.19,-4.13,-4.09,0,*62
1510931250.14,2820,8.44,73574.8,-3.19,-4.13,-4.13,0,*63
1510931251.34,2821,8.44,73574.0,-3.19,-4.21,-4.21,0,*62
1510931252.57,2822,8.44,73564.5,-3.17,-4.21,-4.13,0,*6E
1510931253.79,2823,8.44,73566.0,-3.17,-4.21,-4.21,0,*6E
1510931255.02,2824,8.44,73570.3,-3.17,-4.25,-4.21,0,*6D
1510931256.22,2825,8.44,73568.0,-3.19,-4.21,-4.13,0,*67
1510931257.42,2826,8.44,73568.0,-3.19,-4.13,-4.13,0,*65
1510931258.62,2827,8.44,73566.8,-3.19,-4.21,-4.13,0,*65
1510931259.84,2828,8.44,73570.0,-3.21,-4.25,-4.25,0,*60
1510931261.05,2829,8.44,73566.8,-3.19,-4.21,-4.21,0,*6A
1510931262.27,2830,8.44,73564.0,-3.17,-4.13,-4.21,0,*6D
1510931263.49,2831,8.44,73566.5,-3.21,-4.25,-4.17,0,*69
1510931264.68,2832,8.44,73560.8,-3.19,-4.25,-4.13,0,*65
1510931265.88,2833,8.44,73560.3,-3.19,-4.25,-4.13,0,*64
1510931267.11,2834,8.44,73564.0,-3.17,-4.21,-4.13,0,*69
1510931268.3,2835,8.44,73560.8,-3.19,-4.25,-4.13,0,*62
1510931269.51,2836,8.44,73566.0,-3.19,-4.21,-4.21,0,*64
1510931270.71,2837,8.44,73570.0,-3.19,-4.21,-4.21,0,*65
1510931271.91,2838,8.44,73568.0,-3.19,-4.25,-4.25,0,*6A
1510931273.13,2839,8.44,73566.8,-3.21,-4.25,-4.13,0,*65
1510931274.34,2840,8.44,73566.3,-3.19,-4.21,-4.21,0,*65
1510931275.54,2841,8.44,73564.3,-3.19,-4.25,-4.13,0,*61
1510931276.74,2842,8.44,73568.3,-3.19,-4.21,-4.13,0,*66
1510931277.94,2843,8.44,73570.5,-3.19,-4.21,-4.21,0,*66
1510931279.15,2844,8.44,73570.5,-3.19,-4.25,-4.21,0,*65
1510931280.34,2845,8.44,73570.8,-3.19,-4.33,-4.25,0,*67
1510931281.56,2846,8.44,73570.0,-3.21,-4.37,-4.25,0,*6B
1510931282.76,2847,8.44,73568.8,-3.19,-4.21,-4.13,0,*63
1510931283.98,2848,8.44,73566.8,-3.21,-4.25,-4.25,0,*66
1510931285.19,2849,8.44,73566.5,-3.19,-4.21,-4.13,0,*6D
1510931286.38,2850,8.44,73568.5,-3.19,-4.25,-4.13,0,*61
1510931287.61,2851,8.44,73570.0,-3.21,-4.29,-4.25,0,*62
1510931288.8,2852,8.44,73570.8,-3.19,-4.25,-4.25,0,*66
1510931290.02,2853,8.44,73572.0,-3.21,-4.29,-4.25,0,*60
1510931291.24,2854,8.44,73564.5,-3.21,-4.37,-4.25,0,*68
1510931292.46,2855,8.44,73570.5,-3.21,-4.29,-4.25,0,*66
1510931293.66,2856,8.44,73572.8,-3.19,-4.25,-4.13,0,*67
1510931294.88,2857,8.44,73574.0,-3.21,-4.25,-4.17,0,*69
1510931296.1,2858,8.44,73570.0,-3.21,-4.25,-4.13,0,*62
1510931297.32,2859,8.44,73566.0,-3.21,-4.17,-4.05,0,*65
1510931298.53,2860,8.44,73564.8,-3.21,-4.17,-4.17,0,*6C
1510931299.73,2861,8.44,73564.8,-3.19,-4.13,-4.13,0,*66
1510931300.95,2862,8.44,73568.3,-3.21,-4.25,-4.25,0,*6E
1510931302.17,2863,8.44,73564.0,-3.21,-4.17,-4.17,0,*6F
1510931303.39,2864,8.44,73570.3,-3.21,-4.17,-4.13,0,*6C
1510931304.61,2865,8.44,73568.0,-3.21,-4.25,-4.25,0,*69
1510931305.81,2866,8.44,73568.3,-3.19,-4.21,-4.13,0,*60
1510931307.03,2867,8.44,73572.8,-3.21,-4.25,-4.17,0,*6A
1510931308.25,2868,8.44,73574.5,-3.21,-4.25,-4.17,0,*65
1510931309.47,2869,8.44,73572.3,-3.21,-4.17,-4.13,0,*61
1510931310.66,2870,8.44,73568.3,-3.19,-4.13,-4.09,0,*6D
1510931311.88,2871,8.44,73574.8,-3.21,-4.17,-4.13,0,*68
1510931313.1,2872,8.44,73572.0,-3.21,-4.25,-4.13,0,*6A
1510931314.32,2873,8.44,73576.5,-3.21,-4.13,-4.13,0,*6E
1510931315.54,2874,8.44,73572.0,-3.21,-4.17,-4.13,0,*6D
1510931316.76,2875,8.44,73568.3,-3.21,-4.17,-4.17,0,*68
1510931317.95,2876,8.44,73572.0,-3.19,-4.13,-4.09,0,*6B
1510931319.17,2877,8.44,73568.8,-3.21,-4.13,-4.13,0,*6A
1510931320.39,2878,8.44,73570.8,-3.21,-4.13,-4.05,0,*62
1510931321.6,2879,8.44,73570.0,-3.21,-4.17,-4.05,0,*67
1510931322.83,2880,8.44,73570.3,-3.21,-4.25,-4.13,0,*67
1510931324.04,2881,8.44,73568.5,-3.19,-4.13,-4.01,0,*6B
1510931325.26,2882,8.44,73574.5,-3.19,-4.09,-4.01,0,*63
1510931326.48,2883,8.44,73570.8,-3.21,-4.17,-4.05,0,*62
1510931327.7,2884,8.44,73572.8,-3.21,-4.17,-4.13,0,*62